* Astronomy

Members Login
Username 
 
Password 
    Remember Me  
Post Info TOPIC: Asteroid 2012 FD58


L

Posts: 131433
Date:
RE: Asteroid 2012 FD58
Permalink  
 


The 140 - 310 metre wide asteroid 2012 FD58 will make a close pass (68.5 lunar distances, 0.17608 AU), travelling at 15.96 km/second, to the Earth on the 12th May 2018 @ 10:10 UT 02:09.

See more

The Lunar Distance (LD), the distance between Earth and the Moon, equals 384,401 km, (or 0.00256 AU).



__________________


L

Posts: 131433
Date:
Permalink  
 

Orbital elements:
2012 FD58                                                Earth MOID = 0.1481 AU
Epoch 2012 Mar. 14.0 TT = JDT 2456000.5                 MPC
M 214.13628              (2000.0)            P               Q
n   0.83986008     Peri.  136.52244     +0.93895719     +0.32543350
a   1.1125805      Node   205.14036     -0.34047245     +0.92554818
e   0.3785520      Incl.   15.22833     +0.04937511     +0.19352932
P   1.17           H   21.5           G   0.15           U   9

MPEC 2012 - F107



__________________
Page 1 of 1  sorted by
 
Quick Reply

Please log in to post quick replies.



Create your own FREE Forum
Report Abuse
Powered by ActiveBoard